,,Stat6,,Stat2,,Stat8,,Stat9,,Stat10,,Wind1,,Wind1,
time,status,PA1M_AVG,status,PR1M_SUM,status,RH1M_AVG,status,SR1M_AVG,status,TA1M_AVG,status,W1dAve1m,status,W1sAve1m,
2008-10-03, 00:00:01,VALID,917.962,VALID,0,VALID,100,VALID,0.0679233,VALID,20.5649,VALID,61,VALID,0,
2008-10-03, 00:01:00,VALID,917.943,VALID,0,VALID,100,VALID,0.0339617,VALID,20.5709,VALID,61,VALID,0,
2008-10-03, 00:02:01,VALID,917.945,VALID,0,VALID,100,VALID,0.0509425,VALID,20.5742,VALID,61,VALID,0,
2008-10-03, 00:03:01,VALID,917.93,VALID,0,VALID,100,VALID,0.0679233,VALID,20.5812,VALID,61,VALID,0,
2008-10-03, 00:04:00,VALID,917.924,VALID,0,VALID,100,VALID,0,VALID,20.5819,VALID,61,VALID,0,
2008-10-03, 00:05:00,VALID,917.927,VALID,0,VALID,100,VALID,-0.0509425,VALID,20.589,VALID,61,VALID,0,
2008-10-03, 00:06:00,VALID,917.908,VALID,0,VALID,100,VALID,-0.0169808,VALID,20.6087,VALID,61,VALID,0,
2008-10-03, 00:07:01,VALID,917.91,VALID,0,VALID,100,VALID,-0.0339617,VALID,20.6219,VALID,61,VALID,0,
2008-10-03, 00:08:01,VALID,917.893,VALID,0,VALID,100,VALID,-0.0509425,VALID,20.6284,VALID,61,VALID,0,
2008-10-03, 00:09:00,VALID,917.873,VALID,0,VALID,100,VALID,-0.0169808,VALID,20.6314,VALID,61,VALID,0,
2008-10-03, 00:10:01,VALID,917.862,VALID,0,VALID,100,VALID,-0.0339617,VALID,20.6217,VALID,61,VALID,0,
2008-10-03, 00:11:01,VALID,917.858,VALID,0,VALID,100,VALID,-0.0679233,VALID,20.6222,VALID,61,VALID,0,
2008-10-03, 00:12:00,VALID,917.842,VALID,0,VALID,100,VALID,-0.0679233,VALID,20.599,VALID,61,VALID,0,
2008-10-03, 00:13:01,VALID,917.828,VALID,0,VALID,100,VALID,-0.0509425,VALID,20.5727,VALID,61,VALID,0,
2008-10-03, 00:14:00,VALID,917.831,VALID,0,VALID,100,VALID,-0.0679233,VALID,20.5792,VALID,61,VALID,0,
2008-10-03, 00:15:01,VALID,917.834,VALID,0,VALID,100,VALID,-0.0849042,VALID,20.5932,VALID,61,VALID,0,
2008-10-03, 00:16:00,VALID,917.827,VALID,0,VALID,100,VALID,-0.0339617,VALID,20.6125,VALID,61,VALID,0,
2008-10-03, 00:17:01,VALID,917.799,VALID,0,VALID,100,VALID,-0.0509425,VALID,20.6284,VALID,61,VALID,0,
2008-10-03, 00:18:00,VALID,917.787,VALID,0,VALID,100,VALID,-0.0509425,VALID,20.6482,VALID,61,VALID,0,
2008-10-03, 00:19:01,VALID,917.781,VALID,0,VALID,100,VALID,-0.0339617,VALID,20.6444,VALID,61,VALID,0,
2008-10-03, 00:20:00,VALID,917.771,VALID,0,VALID,100,VALID,-0.0339617,VALID,20.6344,VALID,61,VALID,0,
2008-10-03, 00:21:00,VALID,917.747,VALID,0,VALID,100,VALID,-0.0509425,VALID,20.6249,VALID,61,VALID,0,
2008-10-03, 00:22:00,VALID,917.738,VALID,0,VALID,100,VALID,-0.0339617,VALID,20.6154,VALID,61,VALID,0,
2008-10-03, 00:23:00,VALID,917.726,VALID,0,VALID,100,VALID,-0.0849042,VALID,20.5703,VALID,61,VALID,0,
2008-10-03, 00:24:00,VALID,917.706,VALID,0,VALID,100,VALID,-0.0849042,VALID,20.5316,VALID,61,VALID,0,
2008-10-03, 00:25:00,VALID,917.698,VALID,0,VALID,100,VALID,-0.0679233,VALID,20.4921,VALID,61,VALID,0,
2008-10-03, 00:26:00,VALID,917.672,VALID,0,VALID,100,VALID,-0.101885,VALID,20.4599,VALID,61,VALID,0,
2008-10-03, 00:27:00,VALID,917.639,VALID,0,VALID,100,VALID,-0.0679233,VALID,20.4269,VALID,61,VALID,0,
2008-10-03, 00:28:01,VALID,917.62,VALID,0,VALID,100,VALID,-0.0849042,VALID,20.4082,VALID,61,VALID,0,
2008-10-03, 00:29:01,VALID,917.591,VALID,0,VALID,100,VALID,-0.0509425,VALID,20.3947,VALID,61,VALID,0,
2008-10-03, 00:30:01,VALID,917.567,VALID,0,VALID,100,VALID,-0.0509425,VALID,20.3813,VALID,61,VALID,0,
2008-10-03, 00:31:01,VALID,917.558,VALID,0,VALID,100,VALID,-0.0339617,VALID,20.3755,VALID,61,VALID,0,
2008-10-03, 00:32:01,VALID,917.547,VALID,0,VALID,100,VALID,-0.0849042,VALID,20.3945,VALID,61,VALID,0,
2008-10-03, 00:33:01,VALID,917.532,VALID,0,VALID,100,VALID,-0.0679233,VALID,20.3977,VALID,61,VALID,0,
2008-10-03, 00:34:00,VALID,917.532,VALID,0,VALID,100,VALID,-0.0679233,VALID,20.3885,VALID,61,VALID,0,
2008-10-03, 00:35:01,VALID,917.523,VALID,0,VALID,100,VALID,-0.0849042,VALID,20.4077,VALID,61,VALID,0,
2008-10-03, 00:36:01,VALID,917.527,VALID,0,VALID,100,VALID,-0.0679233,VALID,20.4005,VALID,61,VALID,0,
2008-10-03, 00:37:01,VALID,917.533,VALID,0,VALID,100,VALID,-0.0509425,VALID,20.4077,VALID,61,VALID,0,
2008-10-03, 00:38:01,VALID,917.534,VALID,0,VALID,100,VALID,-0.0509425,VALID,20.4045,VALID,61,VALID,0,
2008-10-03, 00:39:01,VALID,917.547,VALID,0,VALID,100,VALID,-0.0679233,VALID,20.368,VALID,50,VALID,0,
2008-10-03, 00:40:01,VALID,917.548,VALID,0,VALID,100,VALID,-0.0849042,VALID,20.3523,VALID,41,VALID,0,
2008-10-03, 00:41:01,VALID,917.565,VALID,0,VALID,100,VALID,-0.0339617,VALID,20.3161,VALID,41,VALID,0,
2008-10-03, 00:42:00,VALID,917.555,VALID,0,VALID,100,VALID,-0.0339617,VALID,20.3401,VALID,40,VALID,0,
2008-10-03, 00:43:00,VALID,917.561,VALID,0,VALID,100,VALID,-0.0169808,VALID,20.3423,VALID,40,VALID,0,
2008-10-03, 00:44:00,VALID,917.558,VALID,0,VALID,100,VALID,-0.0849042,VALID,20.3496,VALID,40,VALID,0,
2008-10-03, 00:45:00,VALID,917.563,VALID,0,VALID,100,VALID,-0.0679233,VALID,20.3558,VALID,40,VALID,0,
2008-10-03, 00:46:00,VALID,917.549,VALID,0,VALID,100,VALID,-0.0849042,VALID,20.3526,VALID,40,VALID,0,
2008-10-03, 00:47:00,VALID,917.558,VALID,0,VALID,100,VALID,-0.0509425,VALID,20.3366,VALID,40,VALID,0,
2008-10-03, 00:48:00,VALID,917.556,VALID,0,VALID,100,VALID,-0.0339617,VALID,20.3101,VALID,40,VALID,0,
2008-10-03, 00:49:00,VALID,917.545,VALID,0,VALID,100,VALID,-0.0679233,VALID,20.3036,VALID,40,VALID,0,
2008-10-03, 00:50:00,VALID,917.541,VALID,0,VALID,100,VALID,-0.0509425,VALID,20.2714,VALID,40,VALID,0,
2008-10-03, 00:51:00,VALID,917.538,VALID,0,VALID,100,VALID,-0.0849042,VALID,20.256,VALID,40,VALID,0,
2008-10-03, 00:52:00,VALID,917.527,VALID,0,VALID,100,VALID,-0.0849042,VALID,20.2165,VALID,59,VALID,0,
2008-10-03, 00:53:00,VALID,917.535,VALID,0,VALID,100,VALID,-0.0849042,VALID,20.2135,VALID,93,VALID,0,
2008-10-03, 00:54:00,VALID,917.526,VALID,0,VALID,100,VALID,-0.0679233,VALID,20.187,VALID,93,VALID,0,
2008-10-03, 00:55:00,VALID,917.517,VALID,0,VALID,100,VALID,-0.0679233,VALID,20.18,VALID,93,VALID,0,
2008-10-03, 00:56:00,VALID,917.5,VALID,0,VALID,100,VALID,-0.0679233,VALID,20.1703,VALID,93,VALID,0,
2008-10-03, 00:57:00,VALID,917.489,VALID,0,VALID,100,VALID,-0.0339617,VALID,20.1736,VALID,93,VALID,0,
2008-10-03, 00:58:00,VALID,917.464,VALID,0,VALID,100,VALID,-0.0509425,VALID,20.1573,VALID,93,VALID,0,
2008-10-03, 00:59:00,VALID,917.427,VALID,0,VALID,100,VALID,-0.0509425,VALID,20.1511,VALID,93,VALID,0,
2008-10-03, 01:00:00,VALID,917.4,VALID,0,VALID,100,VALID,-0.0509425,VALID,20.1741,VALID,93,VALID,0,
2008-10-03, 01:01:00,VALID,917.379,VALID,0,VALID,100,VALID,-0.0679233,VALID,20.1768,VALID,93,VALID,0,
2008-10-03, 01:02:00,VALID,917.354,VALID,0,VALID,100,VALID,-0.0849042,VALID,20.2095,VALID,93,VALID,0,
2008-10-03, 01:03:00,VALID,917.351,VALID,0,VALID,100,VALID,-0.0679233,VALID,20.2063,VALID,93,VALID,0,
2008-10-03, 01:04:00,VALID,917.344,VALID,0,VALID,100,VALID,-0.0509425,VALID,20.1928,VALID,78,VALID,0,
2008-10-03, 01:05:00,VALID,917.349,VALID,0,VALID,100,VALID,-0.0509425,VALID,20.1965,VALID,51,VALID,0.0474609,
2008-10-03, 01:06:00,VALID,917.367,VALID,0,VALID,100,VALID,-0.0169808,VALID,20.1798,VALID,41,VALID,0.220796,
2008-10-03, 01:07:00,VALID,917.39,VALID,0,VALID,100,VALID,-0.0169808,VALID,20.1738,VALID,42,VALID,0,
2008-10-03, 01:08:00,VALID,917.394,VALID,0,VALID,100,VALID,-0.0509425,VALID,20.1736,VALID,44,VALID,0,
2008-10-03, 01:09:00,VALID,917.401,VALID,0,VALID,100,VALID,-0.0339617,VALID,20.1838,VALID,47,VALID,0,
2008-10-03, 01:10:00,VALID,917.414,VALID,0,VALID,100,VALID,-0.101885,VALID,20.1768,VALID,53,VALID,0,
2008-10-03, 01:11:00,VALID,917.427,VALID,0,VALID,100,VALID,-0.0509425,VALID,20.1703,VALID,53,VALID,0,
2008-10-03, 01:12:00,VALID,917.426,VALID,0,VALID,100,VALID,-0.0509425,VALID,20.1573,VALID,53,VALID,0,
2008-10-03, 01:13:00,VALID,917.431,VALID,0,VALID,100,VALID,-0.101885,VALID,20.1479,VALID,53,VALID,0,
2008-10-03, 01:14:00,VALID,917.457,VALID,0,VALID,100,VALID,-0.0849042,VALID,20.1516,VALID,53,VALID,0,
2008-10-03, 01:15:00,VALID,917.453,VALID,0,VALID,100,VALID,-0.0679233,VALID,20.1479,VALID,53,VALID,0,
2008-10-03, 01:16:00,VALID,917.461,VALID,0,VALID,100,VALID,-0.0849042,VALID,20.1611,VALID,53,VALID,0,
2008-10-03, 01:17:00,VALID,917.484,VALID,0,VALID,100,VALID,-0.0509425,VALID,20.1676,VALID,53,VALID,0,
2008-10-03, 01:18:00,VALID,917.497,VALID,0,VALID,100,VALID,-0.0339617,VALID,20.1603,VALID,53,VALID,0,
2008-10-03, 01:19:00,VALID,917.51,VALID,0,VALID,100,VALID,-0.0509425,VALID,20.1641,VALID,53,VALID,0,
2008-10-03, 01:20:00,VALID,917.517,VALID,0,VALID,100,VALID,-0.0509425,VALID,20.1508,VALID,53,VALID,0,
2008-10-03, 01:21:00,VALID,917.521,VALID,0,VALID,100,VALID,-0.118866,VALID,20.1316,VALID,53,VALID,0,
2008-10-03, 01:22:00,VALID,917.511,VALID,0,VALID,100,VALID,-0.0679233,VALID,20.1256,VALID,53,VALID,0,
2008-10-03, 01:23:00,VALID,917.5,VALID,0,VALID,100,VALID,-0.0849042,VALID,20.0854,VALID,53,VALID,0,
2008-10-03, 01:24:00,VALID,917.494,VALID,0,VALID,100,VALID,-0.0679233,VALID,20.06,VALID,53,VALID,0,
2008-10-03, 01:25:00,VALID,917.477,VALID,0,VALID,100,VALID,-0.0679233,VALID,20.0445,VALID,53,VALID,0,
2008-10-03, 01:26:00,VALID,917.461,VALID,0,VALID,100,VALID,-0.101885,VALID,20.0153,VALID,53,VALID,0,
2008-10-03, 01:27:00,VALID,917.435,VALID,0,VALID,100,VALID,-0.101885,VALID,19.9721,VALID,53,VALID,0,
2008-10-03, 01:28:00,VALID,917.428,VALID,0,VALID,100,VALID,-0.0339617,VALID,19.9264,VALID,53,VALID,0,
2008-10-03, 01:29:00,VALID,917.405,VALID,0,VALID,100,VALID,-0.0169808,VALID,19.9005,VALID,53,VALID,0,
2008-10-03, 01:30:00,VALID,917.403,VALID,0,VALID,100,VALID,-0.0849042,VALID,19.8848,VALID,53,VALID,0,
2008-10-03, 01:31:00,VALID,917.399,VALID,0,VALID,100,VALID,-0.0849042,VALID,19.8753,VALID,53,VALID,0,
2008-10-03, 01:32:00,VALID,917.388,VALID,0,VALID,100,VALID,-0.0679233,VALID,19.8618,VALID,53,VALID,0,
2008-10-03, 01:33:00,VALID,917.392,VALID,0,VALID,100,VALID,-0.0509425,VALID,19.866,VALID,53,VALID,0,
2008-10-03, 01:34:00,VALID,917.381,VALID,0,VALID,100,VALID,-0.0509425,VALID,19.8358,VALID,53,VALID,0,
2008-10-03, 01:35:00,VALID,917.369,VALID,0,VALID,100,VALID,0,VALID,19.8291,VALID,53,VALID,0,
2008-10-03, 01:36:00,VALID,917.354,VALID,0,VALID,100,VALID,0,VALID,19.8164,VALID,53,VALID,0,
2008-10-03, 01:37:00,VALID,917.357,VALID,0,VALID,100,VALID,0,VALID,19.8034,VALID,53,VALID,0,
2008-10-03, 01:38:00,VALID,917.329,VALID,0,VALID,100,VALID,-0.0679233,VALID,19.7971,VALID,53,VALID,0,
2008-10-03, 01:39:00,VALID,917.32,VALID,0,VALID,100,VALID,-0.0169808,VALID,19.7672,VALID,53,VALID,0,
2008-10-03, 01:40:00,VALID,917.317,VALID,0,VALID,100,VALID,-0.0509425,VALID,19.7644,VALID,53,VALID,0,
2008-10-03, 01:41:00,VALID,917.306,VALID,0,VALID,100,VALID,-0.0169808,VALID,19.7452,VALID,53,VALID,0,
2008-10-03, 01:42:00,VALID,917.29,VALID,0,VALID,100,VALID,-0.0509425,VALID,19.6831,VALID,53,VALID,0,
2008-10-03, 01:43:00,VALID,917.289,VALID,0,VALID,100,VALID,-0.0509425,VALID,19.6609,VALID,53,VALID,0,
2008-10-03, 01:44:00,VALID,917.313,VALID,0,VALID,100,VALID,-0.0339617,VALID,19.6506,VALID,53,VALID,0,
2008-10-03, 01:45:00,VALID,917.312,VALID,0,VALID,100,VALID,-0.0509425,VALID,19.6738,VALID,53,VALID,0,
2008-10-03, 01:46:00,VALID,917.318,VALID,0,VALID,100,VALID,-0.0169808,VALID,19.709,VALID,55,VALID,0,
2008-10-03, 01:47:00,VALID,917.328,VALID,0,VALID,100,VALID,-0.0169808,VALID,19.7577,VALID,62,VALID,0,
2008-10-03, 01:48:00,VALID,917.336,VALID,0,VALID,100,VALID,-0.0339617,VALID,19.7739,VALID,62,VALID,0,
2008-10-03, 01:49:00,VALID,917.331,VALID,0,VALID,100,VALID,-0.0509425,VALID,19.7747,VALID,68,VALID,0.0652902,
2008-10-03, 01:50:00,VALID,917.33,VALID,0,VALID,100,VALID,-0.0169808,VALID,19.7318,VALID,112,VALID,0,
2008-10-03, 01:51:00,VALID,917.315,VALID,0,VALID,100,VALID,-0.0169808,VALID,19.6963,VALID,131,VALID,0,
2008-10-03, 01:52:00,VALID,917.299,VALID,0,VALID,100,VALID,-0.0849042,VALID,19.6444,VALID,136,VALID,0,
2008-10-03, 01:53:00,VALID,917.258,VALID,0,VALID,100,VALID,-0.0169808,VALID,19.6279,VALID,150,VALID,0,
2008-10-03, 01:54:00,VALID,917.252,VALID,0,VALID,100,VALID,-0.0339617,VALID,19.6409,VALID,172,VALID,0,
2008-10-03, 01:55:00,VALID,917.233,VALID,0,VALID,100,VALID,0,VALID,19.6214,VALID,165,VALID,0.0575945,
2008-10-03, 01:56:00,VALID,917.209,VALID,0,VALID,100,VALID,0,VALID,19.6117,VALID,165,VALID,0,
2008-10-03, 01:57:00,VALID,917.211,VALID,0,VALID,100,VALID,0,VALID,19.5975,VALID,171,VALID,0,
2008-10-03, 01:58:00,VALID,917.203,VALID,0,VALID,100,VALID,0.0169808,VALID,19.605,VALID,175,VALID,0,
2008-10-03, 01:59:00,VALID,917.198,VALID,0,VALID,100,VALID,-0.0339617,VALID,19.5887,VALID,177,VALID,0,
2008-10-03, 02:00:00,VALID,917.197,VALID,0,VALID,100,VALID,0,VALID,19.5982,VALID,181,VALID,0,
2008-10-03, 02:01:00,VALID,917.196,VALID,0,VALID,100,VALID,0,VALID,19.6082,VALID,180,VALID,0,
2008-10-03, 02:02:00,VALID,917.204,VALID,0,VALID,100,VALID,-0.0169808,VALID,19.595,VALID,180,VALID,0,
2008-10-03, 02:03:00,VALID,917.202,VALID,0,VALID,100,VALID,0,VALID,19.5955,VALID,180,VALID,0,
2008-10-03, 02:04:00,VALID,917.206,VALID,0,VALID,100,VALID,-0.0509425,VALID,19.609,VALID,180,VALID,0,
2008-10-03, 02:05:00,VALID,917.194,VALID,0,VALID,100,VALID,-0.101885,VALID,19.6197,VALID,180,VALID,0,
2008-10-03, 02:06:00,VALID,917.184,VALID,0,VALID,100,VALID,-0.135847,VALID,19.6035,VALID,180,VALID,0,
2008-10-03, 02:07:00,VALID,917.193,VALID,0,VALID,100,VALID,-0.135847,VALID,19.6035,VALID,180,VALID,0,
2008-10-03, 02:08:00,VALID,917.188,VALID,0,VALID,100,VALID,-0.101885,VALID,19.587,VALID,180,VALID,0,
2008-10-03, 02:09:00,VALID,917.205,VALID,0,VALID,100,VALID,-0.101885,VALID,19.5738,VALID,180,VALID,0,
2008-10-03, 02:10:00,VALID,917.213,VALID,0,VALID,100,VALID,-0.118866,VALID,19.5705,VALID,180,VALID,0,
2008-10-03, 02:11:00,VALID,917.229,VALID,0,VALID,100,VALID,-0.101885,VALID,19.5545,VALID,173,VALID,0,
2008-10-03, 02:12:00,VALID,917.239,VALID,0,VALID,100,VALID,-0.135847,VALID,19.5448,VALID,167,VALID,0,
2008-10-03, 02:13:00,VALID,917.236,VALID,0,VALID,100,VALID,-0.0849042,VALID,19.5313,VALID,167,VALID,0,
2008-10-03, 02:14:00,VALID,917.243,VALID,0,VALID,100,VALID,-0.101885,VALID,19.548,VALID,167,VALID,0,
2008-10-03, 02:15:00,VALID,917.244,VALID,0,VALID,100,VALID,-0.101885,VALID,19.5443,VALID,167,VALID,0,
2008-10-03, 02:16:00,VALID,917.233,VALID,0,VALID,100,VALID,-0.135847,VALID,19.548,VALID,167,VALID,0,
2008-10-03, 02:17:00,VALID,917.226,VALID,0,VALID,100,VALID,-0.101885,VALID,19.5216,VALID,160,VALID,0,
2008-10-03, 02:18:00,VALID,917.206,VALID,0,VALID,100,VALID,-0.101885,VALID,19.4954,VALID,152,VALID,0.18064,
2008-10-03, 02:19:00,VALID,917.21,VALID,0,VALID,100,VALID,-0.101885,VALID,19.5089,VALID,150,VALID,0.00213068,
2008-10-03, 02:20:00,VALID,917.198,VALID,0,VALID,100,VALID,-0.101885,VALID,19.4924,VALID,147,VALID,0,
2008-10-03, 02:21:00,VALID,917.197,VALID,0,VALID,100,VALID,-0.101885,VALID,19.4964,VALID,148,VALID,0,
2008-10-03, 02:22:00,VALID,917.197,VALID,0,VALID,100,VALID,-0.118866,VALID,19.5221,VALID,143,VALID,0.69436,
2008-10-03, 02:23:00,VALID,917.19,VALID,0,VALID,100,VALID,-0.101885,VALID,19.5316,VALID,143,VALID,1.02166,
2008-10-03, 02:24:00,VALID,917.202,VALID,0,VALID,100,VALID,-0.101885,VALID,19.5613,VALID,140,VALID,0.914595,
2008-10-03, 02:25:00,VALID,917.19,VALID,0,VALID,100,VALID,-0.118866,VALID,19.5867,VALID,145,VALID,0.895241,
2008-10-03, 02:26:00,VALID,917.18,VALID,0,VALID,100,VALID,-0.118866,VALID,19.6065,VALID,152,VALID,0.971726,
2008-10-03, 02:27:00,VALID,917.166,VALID,0,VALID,100,VALID,-0.118866,VALID,19.6092,VALID,155,VALID,0.468006,
2008-10-03, 02:28:00,VALID,917.138,VALID,0,VALID,100,VALID,-0.118866,VALID,19.6421,VALID,149,VALID,0.774528,
2008-10-03, 02:29:00,VALID,917.116,VALID,0,VALID,100,VALID,-0.118866,VALID,19.6357,VALID,137,VALID,0.618459,
2008-10-03, 02:30:00,VALID,917.102,VALID,0,VALID,100,VALID,-0.0849042,VALID,19.6481,VALID,150,VALID,0.920058,
2008-10-03, 02:31:00,VALID,917.105,VALID,0,VALID,100,VALID,-0.101885,VALID,19.6584,VALID,159,VALID,0.476918,
2008-10-03, 02:32:00,VALID,917.105,VALID,0,VALID,100,VALID,-0.101885,VALID,19.6581,VALID,166,VALID,0.590376,
2008-10-03, 02:33:00,VALID,917.114,VALID,0,VALID,100,VALID,-0.0849042,VALID,19.6611,VALID,164,VALID,0.673735,
2008-10-03, 02:34:00,VALID,917.115,VALID,0,VALID,100,VALID,-0.0509425,VALID,19.6706,VALID,158,VALID,0.822461,
2008-10-03, 02:35:00,VALID,917.117,VALID,0,VALID,100,VALID,0.0169808,VALID,19.6731,VALID,156,VALID,0.256324,
2008-10-03, 02:36:00,VALID,917.103,VALID,0,VALID,100,VALID,0,VALID,19.6601,VALID,167,VALID,0.260671,
2008-10-03, 02:37:00,VALID,917.086,VALID,0,VALID,100,VALID,0,VALID,19.6534,VALID,157,VALID,0.590892,
2008-10-03, 02:38:00,VALID,917.055,VALID,0,VALID,100,VALID,-0.0339617,VALID,19.6534,VALID,156,VALID,0.815358,
2008-10-03, 02:39:00,VALID,917.029,VALID,0,VALID,100,VALID,0.0169808,VALID,19.6798,VALID,172,VALID,0.828658,
2008-10-03, 02:40:00,VALID,916.984,VALID,0,VALID,100,VALID,0.0169808,VALID,19.6796,VALID,153,VALID,0.667597,
2008-10-03, 02:41:00,VALID,916.952,VALID,0,VALID,100,VALID,0,VALID,19.6699,VALID,159,VALID,0.48544,
2008-10-03, 02:42:00,VALID,916.938,VALID,0,VALID,100,VALID,0,VALID,19.6661,VALID,162,VALID,0.617773,
2008-10-03, 02:43:00,VALID,916.929,VALID,0,VALID,100,VALID,0.0169808,VALID,19.6694,VALID,167,VALID,0.932927,
2008-10-03, 02:44:00,VALID,916.917,VALID,0,VALID,100,VALID,0,VALID,19.6596,VALID,165,VALID,1.0074,
2008-10-03, 02:45:00,VALID,916.911,VALID,0,VALID,100,VALID,0,VALID,19.6796,VALID,160,VALID,1.1614,
2008-10-03, 02:46:00,VALID,916.897,VALID,0,VALID,100,VALID,0,VALID,19.6861,VALID,153,VALID,0.163876,
2008-10-03, 02:47:00,VALID,916.88,VALID,0,VALID,100,VALID,-0.0169808,VALID,19.6796,VALID,166,VALID,0.423118,
2008-10-03, 02:48:00,VALID,916.87,VALID,0,VALID,100,VALID,-0.0169808,VALID,19.6888,VALID,168,VALID,0.0281613,
2008-10-03, 02:49:00,VALID,916.855,VALID,0,VALID,100,VALID,-0.0169808,VALID,19.6923,VALID,161,VALID,0.271621,
2008-10-03, 02:50:00,VALID,916.841,VALID,0,VALID,100,VALID,0,VALID,19.7083,VALID,170,VALID,0.378057,
2008-10-03, 02:51:00,VALID,916.849,VALID,0,VALID,100,VALID,0,VALID,19.725,VALID,168,VALID,0.00672238,
2008-10-03, 02:52:00,VALID,916.849,VALID,0,VALID,100,VALID,0,VALID,19.7153,VALID,164,VALID,0.221475,
2008-10-03, 02:53:00,VALID,916.845,VALID,0,VALID,100,VALID,0.0169808,VALID,19.7153,VALID,164,VALID,0.246838,
2008-10-03, 02:54:00,VALID,916.832,VALID,0,VALID,100,VALID,0,VALID,19.7185,VALID,162,VALID,0,
2008-10-03, 02:55:00,VALID,916.844,VALID,0,VALID,100,VALID,0,VALID,19.7118,VALID,155,VALID,0,
2008-10-03, 02:56:00,VALID,916.837,VALID,0,VALID,100,VALID,0,VALID,19.7021,VALID,152,VALID,0,
2008-10-03, 02:57:00,VALID,916.826,VALID,0,VALID,100,VALID,0.0169808,VALID,19.6863,VALID,147,VALID,0,
2008-10-03, 02:58:00,VALID,916.811,VALID,0,VALID,100,VALID,0,VALID,19.6631,VALID,147,VALID,0,
2008-10-03, 02:59:00,VALID,916.797,VALID,0,VALID,100,VALID,0,VALID,19.6504,VALID,147,VALID,0,
2008-10-03, 03:00:00,VALID,916.785,VALID,0,VALID,100,VALID,-0.0169808,VALID,19.6501,VALID,148,VALID,0,
2008-10-03, 03:01:00,VALID,916.77,VALID,0,VALID,100,VALID,-0.0509425,VALID,19.6506,VALID,153,VALID,0,
2008-10-03, 03:02:00,VALID,916.778,VALID,0,VALID,100,VALID,-0.0169808,VALID,19.6571,VALID,157,VALID,0,
2008-10-03, 03:03:00,VALID,916.784,VALID,0,VALID,100,VALID,-0.0169808,VALID,19.6506,VALID,156,VALID,0,
2008-10-03, 03:04:00,VALID,916.787,VALID,0,VALID,100,VALID,-0.0169808,VALID,19.6539,VALID,161,VALID,0.214472,
2008-10-03, 03:05:00,VALID,916.77,VALID,0,VALID,100,VALID,-0.0169808,VALID,19.6569,VALID,180,VALID,0.616806,
2008-10-03, 03:06:00,VALID,916.777,VALID,0,VALID,100,VALID,-0.0169808,VALID,19.6501,VALID,163,VALID,1.03242,
2008-10-03, 03:07:00,VALID,916.774,VALID,0,VALID,100,VALID,0,VALID,19.6536,VALID,149,VALID,0.295387,
2008-10-03, 03:08:00,VALID,916.745,VALID,0,VALID,100,VALID,-0.0169808,VALID,19.6631,VALID,166,VALID,0.555051,
2008-10-03, 03:09:00,VALID,916.739,VALID,0,VALID,100,VALID,-0.0339617,VALID,19.6763,VALID,175,VALID,0.524891,
2008-10-03, 03:10:00,VALID,916.731,VALID,0,VALID,100,VALID,-0.0169808,VALID,19.6993,VALID,182,VALID,0.396326,
2008-10-03, 03:11:00,VALID,916.724,VALID,0,VALID,100,VALID,-0.0339617,VALID,19.6928,VALID,197,VALID,0.748476,
2008-10-03, 03:12:00,VALID,916.706,VALID,0,VALID,100,VALID,-0.0339617,VALID,19.6796,VALID,189,VALID,0,
2008-10-03, 03:13:00,VALID,916.682,VALID,0,VALID,100,VALID,-0.0169808,VALID,19.6763,VALID,184,VALID,0,
2008-10-03, 03:14:00,VALID,916.681,VALID,0,VALID,100,VALID,-0.0339617,VALID,19.6733,VALID,188,VALID,0,
2008-10-03, 03:15:00,VALID,916.682,VALID,0,VALID,100,VALID,-0.0169808,VALID,19.6539,VALID,189,VALID,0,
2008-10-03, 03:16:00,VALID,916.68,VALID,0,VALID,100,VALID,-0.0339617,VALID,19.6412,VALID,185,VALID,0.136218,
2008-10-03, 03:17:00,VALID,916.678,VALID,0,VALID,100,VALID,-0.0339617,VALID,19.6314,VALID,181,VALID,0.0602431,
2008-10-03, 03:18:00,VALID,916.699,VALID,0,VALID,100,VALID,0,VALID,19.6247,VALID,181,VALID,0,
2008-10-03, 03:19:00,VALID,916.709,VALID,0,VALID,100,VALID,-0.0339617,VALID,19.6119,VALID,181,VALID,0.0905878,
2008-10-03, 03:20:00,VALID,916.719,VALID,0,VALID,100,VALID,-0.0679233,VALID,19.5793,VALID,159,VALID,0.230273,
2008-10-03, 03:21:00,VALID,916.723,VALID,0,VALID,100,VALID,-0.0679233,VALID,19.5733,VALID,167,VALID,0,
2008-10-03, 03:22:00,VALID,916.724,VALID,0,VALID,100,VALID,-0.0169808,VALID,19.5565,VALID,154,VALID,0,
2008-10-03, 03:23:00,VALID,916.733,VALID,0,VALID,100,VALID,-0.0339617,VALID,19.5533,VALID,152,VALID,0,
2008-10-03, 03:24:00,VALID,916.732,VALID,0,VALID,100,VALID,-0.0169808,VALID,19.5371,VALID,153,VALID,0.0330078,
2008-10-03, 03:25:00,VALID,916.735,VALID,0,VALID,100,VALID,-0.0339617,VALID,19.5176,VALID,127,VALID,0.300037,
2008-10-03, 03:26:00,VALID,916.718,VALID,0,VALID,100,VALID,-0.0339617,VALID,19.4849,VALID,127,VALID,0.000400641,
2008-10-03, 03:27:00,VALID,916.705,VALID,0,VALID,100,VALID,-0.0339617,VALID,19.459,VALID,124,VALID,0.385099,
2008-10-03, 03:28:00,VALID,916.689,VALID,0,VALID,100,VALID,-0.0339617,VALID,19.4268,VALID,121,VALID,0.764717,
2008-10-03, 03:29:00,VALID,916.664,VALID,0,VALID,100,VALID,-0.0169808,VALID,19.4235,VALID,121,VALID,0.821801,
2008-10-03, 03:30:00,VALID,916.649,VALID,0,VALID,100,VALID,-0.0169808,VALID,19.4038,VALID,99,VALID,0.73371,
2008-10-03, 03:31:00,VALID,916.642,VALID,0,VALID,100,VALID,0,VALID,19.3906,VALID,103,VALID,0.598214,
2008-10-03, 03:32:00,VALID,916.64,VALID,0,VALID,100,VALID,-0.0169808,VALID,19.3614,VALID,119,VALID,0.0699314,
2008-10-03, 03:33:00,VALID,916.618,VALID,0,VALID,100,VALID,0.0169808,VALID,19.3419,VALID,123,VALID,0,
2008-10-03, 03:34:00,VALID,916.614,VALID,0,VALID,100,VALID,-0.0339617,VALID,19.3392,VALID,120,VALID,0.39577,
2008-10-03, 03:35:00,VALID,916.599,VALID,0,VALID,100,VALID,-0.0169808,VALID,19.3227,VALID,106,VALID,0.631138,
2008-10-03, 03:36:00,VALID,916.58,VALID,0,VALID,100,VALID,0,VALID,19.31,VALID,113,VALID,0.0123047,
2008-10-03, 03:37:00,VALID,916.572,VALID,0,VALID,100,VALID,-0.0169808,VALID,19.297,VALID,104,VALID,0.166371,
2008-10-03, 03:38:00,VALID,916.549,VALID,0,VALID,100,VALID,0,VALID,19.274,VALID,108,VALID,0.0833939,
2008-10-03, 03:39:00,VALID,916.539,VALID,0,VALID,100,VALID,-0.0339617,VALID,19.271,VALID,113,VALID,0,
2008-10-03, 03:40:00,VALID,916.551,VALID,0,VALID,100,VALID,-0.0169808,VALID,19.2548,VALID,115,VALID,0,
2008-10-03, 03:41:00,VALID,916.547,VALID,0,VALID,100,VALID,-0.0169808,VALID,19.2643,VALID,128,VALID,0,
2008-10-03, 03:42:00,VALID,916.552,VALID,0,VALID,100,VALID,-0.0509425,VALID,19.2581,VALID,135,VALID,0,
2008-10-03, 03:43:00,VALID,916.56,VALID,0,VALID,100,VALID,-0.0169808,VALID,19.2483,VALID,132,VALID,0,
2008-10-03, 03:44:00,VALID,916.563,VALID,0,VALID,100,VALID,-0.0169808,VALID,19.2386,VALID,134,VALID,0.0875727,
2008-10-03, 03:45:00,VALID,916.577,VALID,0,VALID,100,VALID,-0.0339617,VALID,19.2321,VALID,135,VALID,1.03216,
2008-10-03, 03:46:00,VALID,916.582,VALID,0,VALID,100,VALID,0,VALID,19.2189,VALID,124,VALID,1.16481,
2008-10-03, 03:47:00,VALID,916.583,VALID,0,VALID,100,VALID,-0.0339617,VALID,19.2154,VALID,132,VALID,0.946332,
2008-10-03, 03:48:00,VALID,916.582,VALID,0,VALID,100,VALID,0,VALID,19.2219,VALID,126,VALID,0.660714,